Ellensburg, WA
on Saturday, November 3, 2012

Saturday
Previous Day Next Day
Daily Summary
 ActualAverage (KYKM)Record (KYKM)
Temperature
Mean Temperature °F 42°F  
Max Temperature 57°F 55°F 72°F (1975)
Min Temperature 46°F 30°F 7°F (2002)
Degree Days
Heating Degree Days 14 23  
Month to date heating degree days 68  
Since 1 July heating degree days 772  
Cooling Degree Days 0 0  
Month to date cooling degree days 0  
Year to date cooling degree days 472  
Moisture
Dew Point 44°F   
Average Humidity 80    
Maximum Humidity 87    
Minimum Humidity 67    
Precipitation
Precipitation 0.03 in 0.03 in 0.57 in (1958)
Month to date precipitation 0.08  
Year to date precipitation 5.75  
Snow
Snow 0.00 in 0.00 in 2.50 in (1973)
Month to date snowfall 0.0  
Year to date snowfall 8.7  
Since 1 July snowfall 0.1  
Snow Depth in   
Wind
Wind Speed 1 mph   
Max Wind Speed 7 mph   
Max Gust Speed mph   
Visibility 7 miles   
Events Fog , Rain   

Key: T is trace of precipitation, MM is missing value
Source: NWS Daily Summary
Time(PDT)TemperatureDew PointHumidity Pressure Visibility Wind DirectionWind SpeedGust SpeedPrecipitationEvents Conditions
12:53 AM 48.9°F 43.0°F 80% 30.02 in 10.0 miles Calm Calm - 0.00 in   Overcast
1:53 AM 48.0°F 43.0°F 83% 30.01 in 10.0 miles East 4.6 mph - N/A   Overcast
2:53 AM 46.9°F 42.1°F 83% 30.02 in 8.0 miles Calm Calm - N/A   Overcast
3:53 AM 48.0°F 43.0°F 83% 30.02 in 9.0 miles Calm Calm - N/A   Overcast
4:53 AM 48.9°F 44.1°F 83% 30.03 in 10.0 miles NNE 3.5 mph - 0.02 in Rain Light Rain
5:49 AM 46.4°F 42.8°F 87% 30.03 in 3.0 miles Calm Calm - 0.01 in   Overcast
5:53 AM 46.9°F 43.0°F 86% 30.04 in 2.5 miles Calm Calm - 0.01 in   Overcast
6:06 AM 46.4°F 42.8°F 87% 30.03 in 1.0 miles Calm Calm - N/A   Haze
6:14 AM 46.4°F 42.8°F 87% 30.03 in 0.5 miles Calm Calm - N/A Fog Fog
6:29 AM 46.4°F 42.8°F 87% 30.03 in 1.0 miles Calm Calm - N/A   Haze
6:36 AM 46.4°F 42.8°F 87% 30.03 in 0.2 miles Calm Calm - N/A Fog Fog
6:53 AM 46.0°F 42.1°F 86% 30.05 in 0.5 miles Calm Calm - N/A Fog Fog
7:02 AM 46.4°F 42.8°F 87% 30.03 in 1.2 miles Calm Calm - N/A   Haze
7:08 AM 46.4°F 42.8°F 87% 30.03 in 3.0 miles Calm Calm - N/A   Overcast
7:53 AM 46.9°F 42.1°F 83% 30.04 in 6.0 miles NNE 4.6 mph - N/A   Haze
8:44 AM 48.2°F 42.8°F 82% 30.05 in 5.0 miles Calm Calm - N/A   Haze
8:53 AM 48.0°F 44.1°F 86% 30.06 in 5.0 miles Calm Calm - N/A   Overcast
9:43 AM 50.0°F 44.6°F 82% 30.06 in 4.0 miles Calm Calm - N/A   Haze
9:53 AM 48.9°F 45.0°F 86% 30.07 in 5.0 miles Calm Calm - N/A   Overcast
10:03 AM 50.0°F 44.6°F 82% 30.06 in 5.0 miles Calm Calm - N/A   Haze
10:53 AM 52.0°F 45.0°F 77% 30.08 in 8.0 miles Calm Calm - N/A   Overcast
11:17 AM 53.6°F 46.4°F 77% 30.07 in 10.0 miles Calm Calm - N/A   Scattered Clouds
11:53 AM 53.1°F 46.0°F 77% 30.07 in 10.0 miles SSE 3.5 mph - N/A   Clear
12:34 PM 53.6°F 46.4°F 77% 30.06 in 10.0 miles Calm Calm - N/A   Partly Cloudy
12:53 PM 55.0°F 46.0°F 72% 30.07 in 10.0 miles SSE 3.5 mph - N/A   Partly Cloudy
1:43 PM 55.4°F 46.4°F 72% 30.05 in 10.0 miles Calm Calm - N/A   Mostly Cloudy
1:53 PM 55.9°F 46.0°F 69% 30.06 in 10.0 miles Calm Calm - N/A   Mostly Cloudy
2:53 PM 55.9°F 45.0°F 67% 30.07 in 10.0 miles Calm Calm - N/A   Scattered Clouds
3:53 PM 55.9°F 45.0°F 67% 30.08 in 10.0 miles SSE 3.5 mph - N/A   Overcast
4:53 PM 55.9°F 45.0°F 67% 30.09 in 10.0 miles Calm Calm - N/A   Overcast
5:53 PM 54.0°F 46.0°F 75% 30.09 in 10.0 miles NE 3.5 mph - N/A   Overcast
6:53 PM 53.1°F 46.0°F 77% 30.10 in 10.0 miles Calm Calm - N/A   Overcast
7:53 PM 52.0°F 46.9°F 83% 30.12 in 10.0 miles Calm Calm - 0.00 in   Overcast
8:53 PM 52.0°F 46.0°F 80% 30.13 in 10.0 miles ESE 3.5 mph - N/A   Overcast
9:53 PM 52.0°F 45.0°F 77% 30.13 in 10.0 miles Calm Calm - N/A   Overcast
10:53 PM 54.0°F 46.0°F 75% 30.14 in 10.0 miles WNW 6.9 mph - N/A   Overcast
11:53 PM 55.0°F 46.0°F 72% 30.15 in 10.0 miles WNW 6.9 mph - N/A   Overcast
Moon Phase
Nov. 03 Nov. 06 Nov. 13 Nov. 20 Nov. 28
Sunrise:07:48 AM (PDT) Moon Rise:09:21 PM (PDT)11/3
Sunset:05:41 PM (PDT) Moon Set:12:03 PM (PDT)11/3

Copyright © 2014 The Weather Underground, Inc.